This is the latest recevied weather packets stored in our database for station/object IT9CNT. If no packets are shown the sender has not sent any weather packets the latest 10 day(s).
| Time | Temp. | Humidity | Pressure | Rain* | Wind** | Luminosity | Snow |
|---|---|---|---|---|---|---|---|
| 1788118983 | 28.33° C | 83% | 1013.2 hPa | 13.46 mm | - | - | - |
| 1788118923 | 28.33° C | 83% | 1013.4 hPa | 13.46 mm | - | - | - |
| 1788118863 | 27.78° C | 83% | 1013.2 hPa | 13.46 mm | - | - | - |
| 1788118803 | 27.78° C | 83% | 1013.2 hPa | 13.46 mm | - | - | - |
| 1788118743 | 28.33° C | 83% | 1013.3 hPa | 13.46 mm | - | - | - |
| 1788118683 | 28.33° C | 83% | 1013.3 hPa | 13.46 mm | - | - | - |
| 1788118623 | 28.33° C | 83% | 1013.4 hPa | 13.46 mm | - | - | - |
| 1788118563 | 28.33° C | 83% | 1013.2 hPa | 13.46 mm | - | - | - |
| 1788118503 | 28.33° C | 83% | 1013.4 hPa | 13.46 mm | - | - | - |
| 1788118443 | 28.33° C | 83% | 1013.1 hPa | 13.46 mm | - | - | - |
| 1788118383 | 28.33° C | 83% | 1013.2 hPa | 13.46 mm | - | - | - |
| 1788118323 | 28.33° C | 83% | 1013.1 hPa | 13.46 mm | - | - | - |
| 1788118263 | 28.33° C | 83% | 1013.4 hPa | 13.46 mm | - | - | - |
| 1788118203 | 28.33° C | 83% | 1013.1 hPa | 13.21 mm | - | - | - |
| 1788118143 | 28.33° C | 83% | 1013.1 hPa | 11.68 mm | - | - | - |
| 1788118083 | 28.33° C | 83% | 1013.2 hPa | 11.68 mm | - | - | - |
| 1788118023 | 28.33° C | 83% | 1013.1 hPa | 11.68 mm | - | - | - |
| 1788117963 | 28.33° C | 83% | 1013.2 hPa | 11.68 mm | - | - | - |
| 1788117903 | 28.33° C | 83% | 1013.1 hPa | 11.68 mm | - | - | - |
| 1788117843 | 28.33° C | 83% | 1013 hPa | 10.92 mm | - | - | - |
| 1788117783 | 28.33° C | 83% | 1013 hPa | 10.92 mm | - | - | - |
| 1788117723 | 28.33° C | 83% | 1013.2 hPa | 9.91 mm | - | - | - |
| 1788117663 | 28.33° C | 83% | 1013.1 hPa | 9.91 mm | - | - | - |
| 1788117603 | 28.33° C | 83% | 1013 hPa | 9.91 mm | - | - | - |
| 1788117543 | 28.33° C | 83% | 1013 hPa | 8.64 mm | - | - | - |
* Rain latest hour (hover to see other rain measurements)
** Current wind speed in m/s (hover to see current wind gust speed)